TimeEDT,TemperatureF,Dew PointF,Humidity,Sea Level PressureIn,VisibilityMPH,Wind Direction,Wind SpeedMPH,Gust SpeedMPH,PrecipitationIn,Events,Conditions,WindDirDegrees,DateUTC
12:15 AM,77.0,71.6,83,29.98,10.0,SE,3.5,-,N/A,,Clear,130,2013-08-31 04:15:00
12:35 AM,75.2,71.6,89,29.98,10.0,SE,3.5,-,N/A,,Clear,140,2013-08-31 04:35:00
12:55 AM,75.2,71.6,89,29.98,10.0,SE,3.5,-,N/A,,Clear,140,2013-08-31 04:55:00
1:15 AM,75.2,71.6,89,29.98,10.0,SE,4.6,-,N/A,,Clear,140,2013-08-31 05:15:00
1:35 AM,73.4,71.6,94,29.98,10.0,SSE,5.8,-,N/A,,Clear,150,2013-08-31 05:35:00
1:55 AM,73.4,71.6,94,29.98,10.0,SSE,4.6,-,N/A,,Clear,150,2013-08-31 05:55:00
2:15 AM,73.4,71.6,94,29.97,10.0,SSE,4.6,-,N/A,,Clear,150,2013-08-31 06:15:00
2:35 AM,73.4,71.6,94,29.97,10.0,SSE,3.5,-,N/A,,Clear,150,2013-08-31 06:35:00
2:55 AM,73.4,71.6,94,29.97,10.0,SSE,3.5,-,N/A,,Clear,160,2013-08-31 06:55:00
3:15 AM,73.4,73.4,100,29.97,10.0,Calm,Calm,-,N/A,,Clear,0,2013-08-31 07:15:00
3:35 AM,73.4,73.4,100,29.97,10.0,Calm,Calm,-,N/A,,Clear,0,2013-08-31 07:35:00
3:55 AM,73.4,73.4,100,29.97,10.0,Calm,Calm,-,N/A,,Clear,0,2013-08-31 07:55:00
4:15 AM,73.4,73.4,100,29.97,10.0,Calm,Calm,-,N/A,,Clear,0,2013-08-31 08:15:00
4:35 AM,73.4,73.4,100,29.96,10.0,Calm,Calm,-,N/A,,Clear,0,2013-08-31 08:35:00
4:55 AM,73.4,73.4,100,29.96,10.0,Calm,Calm,-,N/A,,Clear,0,2013-08-31 08:55:00
5:15 AM,71.6,71.6,100,29.96,7.0,Calm,Calm,-,N/A,,Clear,0,2013-08-31 09:15:00
5:35 AM,71.6,71.6,100,29.96,7.0,Calm,Calm,-,N/A,,Clear,0,2013-08-31 09:35:00
5:55 AM,73.4,73.4,100,29.96,7.0,Calm,Calm,-,N/A,,Clear,0,2013-08-31 09:55:00
6:15 AM,71.6,71.6,100,29.96,7.0,SE,4.6,-,N/A,,Clear,130,2013-08-31 10:15:00
6:35 AM,71.6,71.6,100,29.97,5.0,Calm,Calm,-,N/A,,Clear,0,2013-08-31 10:35:00
6:55 AM,71.6,71.6,100,29.98,5.0,Calm,Calm,-,N/A,,Clear,0,2013-08-31 10:55:00
7:15 AM,71.6,71.6,100,29.98,5.0,SE,4.6,-,N/A,,Clear,130,2013-08-31 11:15:00
7:35 AM,73.4,73.4,100,29.98,4.0,Calm,Calm,-,N/A,,Clear,0,2013-08-31 11:35:00
7:55 AM,71.6,71.6,100,29.98,2.5,SE,3.5,-,N/A,,Mist,140,2013-08-31 11:55:00
8:15 AM,73.4,73.4,100,29.99,4.0,SE,4.6,-,N/A,,Clear,140,2013-08-31 12:15:00
8:35 AM,73.4,73.4,100,29.99,5.0,SE,4.6,-,N/A,,Clear,140,2013-08-31 12:35:00
8:55 AM,77.0,75.2,94,29.99,7.0,SSE,3.5,-,N/A,,Scattered Clouds,160,2013-08-31 12:55:00
9:15 AM,77.0,75.2,94,29.99,10.0,South,8.1,-,N/A,,Scattered Clouds,190,2013-08-31 13:15:00
9:35 AM,78.8,77.0,94,30.00,10.0,South,6.9,-,N/A,,Mostly Cloudy,190,2013-08-31 13:35:00
9:55 AM,78.8,77.0,94,30.00,10.0,South,6.9,-,N/A,,Overcast,180,2013-08-31 13:55:00
10:15 AM,78.8,77.0,94,30.00,10.0,South,8.1,-,N/A,,Mostly Cloudy,180,2013-08-31 14:15:00
10:35 AM,80.6,77.0,89,30.01,10.0,South,6.9,-,N/A,,Mostly Cloudy,190,2013-08-31 14:35:00
10:55 AM,80.6,77.0,89,30.00,10.0,SSW,3.5,-,N/A,,Overcast,210,2013-08-31 14:55:00
11:15 AM,82.4,77.0,84,30.00,10.0,SSW,4.6,-,N/A,,Mostly Cloudy,210,2013-08-31 15:15:00
11:35 AM,82.4,77.0,84,30.00,10.0,SSW,4.6,-,N/A,,Scattered Clouds,200,2013-08-31 15:35:00
11:55 AM,82.4,77.0,84,29.99,10.0,SSW,4.6,-,N/A,,Mostly Cloudy,200,2013-08-31 15:55:00
12:15 PM,82.4,77.0,84,29.98,10.0,SSW,5.8,-,N/A,,Mostly Cloudy,200,2013-08-31 16:15:00
12:35 PM,82.4,75.2,79,29.98,10.0,South,4.6,-,N/A,,Overcast,180,2013-08-31 16:35:00
12:55 PM,82.4,77.0,84,29.98,10.0,SSW,6.9,-,N/A,,Mostly Cloudy,200,2013-08-31 16:55:00
1:15 PM,86.0,75.2,70,29.98,10.0,South,8.1,-,N/A,,Scattered Clouds,190,2013-08-31 17:15:00
1:35 PM,87.8,75.2,66,29.97,10.0,SW,9.2,-,N/A,,Scattered Clouds,220,2013-08-31 17:35:00
1:55 PM,87.8,73.4,62,29.97,10.0,South,8.1,-,N/A,,Scattered Clouds,190,2013-08-31 17:55:00
2:15 PM,86.0,75.2,70,29.96,10.0,SSW,5.8,-,N/A,,Scattered Clouds,210,2013-08-31 18:15:00
2:35 PM,87.8,75.2,66,29.96,10.0,SE,3.5,-,N/A,,Clear,140,2013-08-31 18:35:00
2:55 PM,87.8,73.4,62,29.94,10.0,SSW,5.8,-,N/A,,Scattered Clouds,200,2013-08-31 18:55:00
3:15 PM,87.8,73.4,62,29.93,10.0,South,5.8,-,N/A,,Scattered Clouds,190,2013-08-31 19:15:00
3:35 PM,87.8,73.4,62,29.93,10.0,SW,4.6,-,N/A,,Scattered Clouds,220,2013-08-31 19:35:00
3:55 PM,87.8,75.2,66,29.92,10.0,Calm,Calm,-,N/A,,Clear,0,2013-08-31 19:55:00
4:15 PM,87.8,73.4,62,29.92,10.0,South,4.6,-,N/A,,Clear,190,2013-08-31 20:15:00
4:35 PM,87.8,73.4,62,29.92,10.0,South,4.6,-,N/A,,Scattered Clouds,170,2013-08-31 20:35:00
4:55 PM,86.0,75.2,70,29.91,10.0,South,4.6,-,N/A,,Clear,180,2013-08-31 20:55:00
5:15 PM,86.0,77.0,74,29.91,10.0,South,6.9,-,N/A,,Clear,180,2013-08-31 21:15:00
5:35 PM,86.0,73.4,66,29.91,10.0,South,4.6,-,N/A,,Clear,180,2013-08-31 21:35:00
5:55 PM,86.0,73.4,66,29.92,10.0,South,3.5,-,N/A,,Clear,170,2013-08-31 21:55:00
6:15 PM,86.0,75.2,70,29.92,10.0,South,4.6,-,N/A,,Clear,170,2013-08-31 22:15:00
6:35 PM,84.2,77.0,79,29.92,10.0,SSE,3.5,-,N/A,,Clear,160,2013-08-31 22:35:00
6:55 PM,84.2,77.0,79,29.92,10.0,Calm,Calm,-,N/A,,Clear,0,2013-08-31 22:55:00
7:15 PM,82.4,78.8,89,29.91,10.0,SSE,3.5,-,N/A,,Clear,150,2013-08-31 23:15:00
7:35 PM,82.4,78.8,89,29.90,10.0,SSE,5.8,-,N/A,,Clear,160,2013-08-31 23:35:00
7:55 PM,82.4,78.8,89,29.89,10.0,SSE,5.8,-,N/A,,Clear,160,2013-08-31 23:55:00
8:15 PM,82.4,77.0,84,29.89,10.0,South,5.8,-,N/A,,Clear,180,2013-09-01 00:15:00
8:35 PM,80.6,77.0,89,29.91,10.0,SSW,4.6,-,N/A,,Clear,200,2013-09-01 00:35:00
8:55 PM,80.6,77.0,89,29.93,10.0,South,3.5,-,N/A,,Clear,190,2013-09-01 00:55:00
9:15 PM,78.8,77.0,94,29.94,10.0,Calm,Calm,-,N/A,,Clear,0,2013-09-01 01:15:00
9:35 PM,78.8,77.0,94,29.95,10.0,Calm,Calm,-,N/A,,Clear,0,2013-09-01 01:35:00
9:55 PM,78.8,77.0,94,29.95,10.0,Calm,Calm,-,N/A,,Clear,0,2013-09-01 01:55:00
10:15 PM,78.8,77.0,94,29.94,10.0,Calm,Calm,-,N/A,,Clear,0,2013-09-01 02:15:00
10:35 PM,78.8,77.0,94,29.94,10.0,Calm,Calm,-,N/A,,Clear,0,2013-09-01 02:35:00
10:55 PM,77.0,77.0,100,29.94,7.0,Calm,Calm,-,N/A,,Clear,0,2013-09-01 02:55:00
11:15 PM,77.0,77.0,100,29.93,7.0,Calm,Calm,-,N/A,,Clear,0,2013-09-01 03:15:00
11:35 PM,77.0,77.0,100,29.93,7.0,Calm,Calm,-,N/A,,Clear,0,2013-09-01 03:35:00
11:55 PM,77.0,77.0,100,29.93,5.0,Calm,Calm,-,N/A,,Clear,0,2013-09-01 03:55:00